Location: Newark
(7.1028°S, 35.3258°W)
Time: 09:47:59
(UTC+00:00)

Vanguard 3 - Pass Details

Date: 24 February 2020
Orbit: 508 x 3262 km, 33.3° (Epoch: 28 March)

Event Time Altitude Azimuth Distance (km) Brightness Sun altitude
Rises 22:48:32 0° 271° (W) 7,118 13.0 -31.3°
Reaches altitude 10° 22:54:10 10° 262° (W) 6,193 12.5 -32.7°
Maximum altitude 23:11:03 34° 204° (SSW) 4,205 10.9 -36.7°
Drops below altitude 10° 23:24:29 10° 144° (SE) 4,916 10.9 -39.9°
Enters shadow 23:25:20 - 142° (SE) 5,041 11.0 -40.1°
Sets 23:28:22 0° 134° (SE) 5,547 - -40.8°
